Notices

What's New in latest Release from April 7th, 2021:

- Updated Glossary, including Speed of Maximum Gust, and Total Hourly Precipitation

- Updated national and regional climate services offices contacts and prices information

- Addition of station inventory lists for 1981-2010, 1971-2000, and 1961-1990 Normals.

If you haven't already, please take our survey and provide feedback about our website: https://eccc.sondage-survey.ca/f/LanguageSelection.aspx?s=442ca660-fcf1-47c0-95a9-59707d6fd709

Hourly Data Report for March 13, 2010

HALIFAX STANFIELD INT'L A
NOVA SCOTIA

44°52'48.060" N
63°30'00.050" W
145.40 m
8202250
71395
YHZ

Download Data

Hourly Data (March 2010)
Hourly Data Report for March 13, 2010
TIME
LST
Temp Definition
°C
Dew Point Definition
°C
Rel Hum Definition
%
Precip. Amount Definition
mm

Wind Dir Definition
10's deg

Wind Spd Definition
km/h
Visibility Definition
km
Stn Press Definition
kPa
Hmdx Definition


Wind Chill Definition


Weather Definition


00:00 -4.3 -10.8 60   3 7 24.1 101.13   -7 Clear
01:00 -4.0 -10.2 62   2 4 24.1 101.15   -6 Clear
02:00 -5.4 -10.0 70   4 6 24.1 101.22   -8 Clear
03:00 -5.5 -9.2 75   2 4 24.1 101.22   -7 Clear
04:00 -5.6 -9.4 75   1 6 24.1 101.24   -8 Clear
05:00 -6.4 -9.4 79   3 6 24.1 101.27   -9 Clear
06:00 -6.1 -8.9 81   5 6 24.1 101.29   -9 Clear
07:00 -5.3 -7.6 84     0 24.1 101.34     Mainly Clear
08:00 -3.7 -6.6 80   5 17 24.1 101.31   -9 Mainly Clear
09:00 -1.9 -6.8 69   7 24 24.1 101.32   -8 Mainly Clear
10:00 -0.6 -7.2 61   9 13 24.1 101.35   -5 Mostly Cloudy
11:00 2.0 -7.6 49   16 11 24.1 101.32     Mostly Cloudy
12:00 4.0 -6.9 45   15 9 24.1 101.33     Mostly Cloudy
13:00 3.6 -6.1 49   15 13 24.1 101.31     Mostly Cloudy
14:00 3.7 -5.9 49   14 11 24.1 101.29     Mainly Clear
15:00 2.8 -6.1 52   13 20 24.1 101.26     Mostly Cloudy
16:00 2.4 -6.4 52   15 19 24.1 101.22     Mostly Cloudy
17:00 1.3 -5.9 59   16 15 24.1 101.25     Mainly Clear
18:00 -1.2 -5.8 71   16 15 24.1 101.25   -6 Cloudy
19:00 -2.7 -5.9 79   15 17 24.1 101.26   -8 Mainly Clear
20:00 -3.3 -5.7 83   14 15 24.1 101.27   -8 Clear
21:00 -3.8 -5.9 85   13 13 24.1 101.24   -9 Clear
22:00 -4.3 -5.9 89   13 13 24.1 101.28   -9 Clear
23:00 -4.9 -6.2 91   11 11 24.1 101.21   -9 Clear

Notes on Data Quality.

Legend

  • E = Estimated
  • M = Missing
  • NA = Not Available*
  • [empty] = Indicates an unobserved value
Date modified: